Regional Weather Roundup
Issued by NWS

Home | Current Version | Previous Version | Text Only | Print | Product List | Glossary Off
Versions: 1 2 3 4 5 6 7 8 9 10 11 12 13 14 15 16 17 18 19 20 21 22 23 24 25 26 27 28 29 30 31 32 33 34 35 36 37 38 39 40 41 42 43 44 45 46

000
ASUS45 KBOU 230510
RWRCO

WEATHER ROUNDUP FOR COLORADO
NATIONAL WEATHER SERVICE PUEBLO CO
1000 PM MST THU FEB 22 2018

NOTE: "FAIR" INDICATES FEW OR NO CLOUDS BELOW 12000 FEET WITH NO
SIGNIFICANT WEATHER AND/OR OBSTRUCTIONS TO VISIBILITY.

COZ001>005-013-030-031-230600-
...NORTHWEST COLORADO...

CITY           SKY/WX    TMP DP  RH WIND       PRES   REMARKS
CRAIG          CLOUDY    21  17  84 E7        29.98S WCI  12
HAYDEN         LGT SNOW  20  17  88 E5        29.98S FOG     WCI  13
MEEKER         CLOUDY    20  18  92 S3        29.96R
RABBIT EARS PA NOT AVBL
STEAMBOAT SPGS CLOUDY    19  17  95 CALM      29.96S
WALDEN         CLOUDY    18  12  79 S5        29.92R WCI  11
$$

COZ006>008-011-230600-
...WEST CENTRAL VALLEYS...

CITY           SKY/WX    TMP DP  RH WIND       PRES   REMARKS
GRAND JUNCTION MOCLDY    28  25  88 NE7       30.00S WCI  21
MONTROSE       CLOUDY    29  19  66 SE3       30.00R
EAGLE          FLURRIES  23  17  78 E5        30.00R WCI  17
RIFLE          LGT SNOW  26  25  96 SE5       30.00S FOG     WCI  20
DELTA          NOT AVBL
NUCLA          CLOUDY    27  18  69 MISG      30.01S
$$

COZ017>023-064>068-230600-
...SOUTHWEST COLORADO...

CITY           SKY/WX    TMP DP  RH WIND       PRES   REMARKS
DURANGO        MOCLDY    24  16  71 NE6       30.02R WCI  17
CORTEZ         CLOUDY    24  13  62 CALM      30.00R
PAGOSA SPRINGS CLOUDY    16  13  89 CALM      30.03R
TELLURIDE      CLOUDY    19  10  70 SE10      29.96R WCI   7
WOLF CREEK PAS CLOUDY     5   5 100 S21G36    29.93S WCI -16
$$

COZ009-010-012-014-032>034-037-058>063-230600-
...CENTRAL COLORADO...

CITY           SKY/WX    TMP DP  RH WIND       PRES   REMARKS
ASPEN          CLOUDY    17  10  74 CALM      29.93R
BUENA VISTA    FAIR      16   8  70 CALM      29.97R
COPPER MTN     PTCLDY     9  -6  52 S20G26    29.84S HAZE    WCI -11
BERTHOUD PASS  FAIR       0 -11  60 SW9G28    29.82R WCI -16
COTTONWOOD PAS CLOUDY    19  12  73 CALM      29.92S
GUNNISON       NOT AVBL
KREMMLING      MOCLDY    27  16  63 W10       29.94S WCI  17
LEADVILLE      PTCLDY     5  -3  69 SE6       29.89R WCI  -6
MONARCH PASS     N/A      5   1  85 SW29      29.96R WCI -19
SALIDA         CLOUDY    24   8  50 W7        30.06R WCI  16
SUNLIGHT       LGT SNOW   9   5  85 SW8       29.91S WCI  -4
WILKERSON PASS PTCLDY     5   1  85 SW9G17    29.90R WCI  -9
$$

COZ069>075-230600-
...SAN LUIS VALLEY/SANGRE DE CRISTO MOUNTAINS...

CITY           SKY/WX    TMP DP  RH WIND       PRES   REMARKS
ALAMOSA        CLEAR     13   7  77 E6        30.01F WCI   4
DEL NORTE      CLOUDY    18  10  71 W5        30.00S WCI  11
LA VETA PASS   PTCLDY    14   3  62 S17G35    30.06R WCI  -3
SAGUACHE       PTCLDY    10   3  72 NE3       30.00S
$$

COZ035-036-038>040-230600-
...NORTHERN COLORADO FRONT RANGE...

CITY           SKY/WX    TMP DP  RH WIND       PRES   REMARKS
DENVER INTL AP LGT SNOW  22  18  85 SW5       30.04R FOG     WCI  16
DMNS CITY PARK NOT AVBL
AURORA         CLOUDY    21  21  99 NW5       30.04R WCI  15
FRONT RANGE AP CLOUDY    23  21  92 W3        30.05R FOG
ERIE MUNI ARPT LGT SNOW  23  21  91 CALM      30.11R
BOULDER MUN AP FAIR      23  19  86 S3        30.04R
CENTENNIAL     CLOUDY    22  20  92 NW6       30.03R WCI  14
BROOMFIELD     CLOUDY    23  19  86 N6        30.04R WCI  16
LOVELAND       MOCLDY    18  15  88 CALM      30.05R FOG
LONGMONT       MOCLDY    15  10  78 W3        30.08R
$$

COZ041-046-047-076>085-087-088-230600-
...PIKES PEAK/PALMER DIVIDE AND SOUTHERN FOOTHILLS...

CITY           SKY/WX    TMP DP  RH WIND       PRES   REMARKS
COLO. SPRINGS  PTCLDY    21  17  84 NE6       30.01R WCI  13
A. F. ACADEMY  PTCLDY    18  15  88 N8        29.99R WCI   8
SCHRIEVER AFB  NOT AVBL
CHEYENNE MTN   NOT AVBL
ELLICOTT         N/A    N/A N/A N/A NE5       29.99R
FALCON         FAIR      18  16  93 N6        30.00R WCI   9
FORT CARSON    PTCLDY    22  17  81 N10       30.00R WCI  11
LIMON          CLOUDY    21  19  92 NW7       30.03R FOG     WCI  12
MONUMENT HILL  CLOUDY    19  18  93 CALM      30.00R FOG
CANON CITY     CLEAR     32   7  34 SW10      30.00R WCI  24
WALSENBURG     FAIR      34   9  35 SW20G25   30.01S WCI  22
TRINIDAD       CLEAR     27   5  39 W7        30.03R WCI  19
$$

COZ042>045-048>051-090-091-230600-
...NORTHEAST COLORADO...

CITY           SKY/WX    TMP DP  RH WIND       PRES   REMARKS
GREELEY ARPT   MOCLDY    16  12  84 NW7       30.07R WCI   6
AKRON          CLOUDY    22  18  85 NW3       30.04R
BURLINGTON     CLOUDY    16  14  92 SE5       30.07R WCI   9
WRAY           CLOUDY    21  19  93 MISG      30.10R
YUMA           NOT AVBL
STERLING       CLOUDY    21  19  93 CALM      30.06S
HOLYOKE        FAIR      21  19  93 CALM      30.08S
FORT MORGAN    CLOUDY    22  17  79 SW3       30.07R
$$

COZ086-089-092>099-230600-
...SOUTHEAST COLORADO...

CITY           SKY/WX    TMP DP  RH WIND       PRES   REMARKS
PUEBLO         CLEAR     28  20  71 N10       30.03R WCI  19
LA JUNTA       CLEAR     26  19  74 NE6       30.05R WCI  19
LAMAR          CLEAR     19  14  81 CALM      30.05R
SPRINGFIELD      N/A     27   8  44 W8        30.03R WCI  19
$$





USA.gov is the U.S. government's official web portal to all federal, state and local government web resources and services.